www.pogodaiklimat.ru
ПОГОДА в Коацакоалькосе

Архив погоды в Коацакоалькосе (Мексика)

Время
(UTC), дата
06 19.06
09 19.06
12 19.06
15 19.06
18 19.06
21 19.06
00 20.06
03 20.06
06 20.06
12 20.06
15 20.06
18 20.06
21 20.06
00 21.06
03 21.06
06 21.06
12 21.06
15 21.06
18 21.06
21 21.06
03 22.06
06 22.06
12 22.06
15 22.06
18 22.06
21 22.06
00 23.06
03 23.06
06 23.06
09 23.06
12 23.06
15 23.06
18 23.06
21 23.06
00 24.06
03 24.06
06 24.06
09 24.06
12 24.06
15 24.06
18 24.06
21 24.06
00 25.06
03 25.06
06 25.06
09 25.06
12 25.06
15 25.06
18 25.06
21 25.06
00 26.06
03 26.06
Ветер
(напр.,м/с)
Видим. Явления Облачность Т
(С)
Тd
(С)
f
(%)
Тe
(С)
Тes
(С)
Комфортность P
(гПа)
Po
(гПа)
Тmin
(С)
Tmax
(С)
R
(мм)
R24
(мм)
S
(см)
С 3 4000 м дождь {морось} 10/8 200 м
[Cb calv As op]
+24.1 +23.7 98 +33 +33 очень
душно
1011.6 1009.8 27
С 3 4000 м дождь 10/8 210 м
[Cu med, cong As op]
+24.0 +24.0 100 +33 +33 очень
душно
1009.4 1007.5 25
С 3 4000 м слаб. морось {дождь} 10/8 210 м
[Cu med, cong As op]
+25.1 +25.0 99 +36 +36 очень
душно
1009.8 1007.9 +22.5 +32.0 28 68.3
штиль 0 5000 м дождь {морось} 10/8 210 м
[Cu med, cong As op]
+25.4 +25.3 99 +37 +37 очень
душно
1011.2 1009.3 7
С 5 5000 м слаб. дождь {морось} 6/6 210 м
[Cu med, cong]
+26.1 +25.1 94 +37 +42 очень
душно
1011.2 1009.3 +22.5 +27.9 10
С 4 6000 м мгла 8/5 240 м
[Cu med, cong As op]
+26.6 +25.0 91 +38 +41 очень
душно
1009.7 1007.9
СЗ 4 5000 м мгла 8/5 240 м
[Cu med, cong As op]
+27.2 +24.5 85 +38 +38 очень
душно
1009.6 1007.8 +22.5 +28.0 77.3
СЗ 4 4000 м слаб. морось {дождь} 10/8 210 м
[Cu Sc As op]
+25.2 +24.6 96 +35 +35 очень
душно
1011.8 1010.0 5
ЮЗ 2 5000 м в посл. час дождь 8/6 200 м
[Cu med, cong Ac trans]
+26.0 +24.9 94 +37 +37 очень
душно
1012.4 1010.5 20
СЗ 3 5000 м мгла {дождь} 10/5 210 м
[Cu med, cong As op]
+25.4 +24.7 96 +36 +36 очень
душно
1009.9 1008.0 +22.5 +28.0 5 33.9
СЗ 2 8000 м слаб. морось {мгла} 10/5 300 м
[St Ac und]
+26.0 +24.9 94 +37 +39 очень
душно
1010.7 1008.8 0.0
СЗ 4 8000 м мгла {дождь} 8/5 360 м
[Cu med, cong Ac und]
+28.2 +25.7 86 +42 +46 опасность
перегрева
1011.8 1010.0 +22.5 +29.0 8
СЗ 6 8000 м в посл. час морось {дождь} 9/8 360 м
[Frnb Ac trans]
+28.0 +25.5 86 +41 +42 опасность
перегрева
1009.8 1008.0 8
СЗ 7 8000 м мгла {дождь, морось} 9/8 200 м
[Frnb Ac trans]
+27.0 +25.6 92 +40 +40 очень
душно
1009.3 1007.5 8
СЗ 4 4000 м слаб. морось 10/8 210 м
[Frnb As op]
+26.5 +24.6 89 +37 +37 очень
душно
1010.4 1008.5 0.4
СЗ 2 4000 м слаб. морось {дождь} 9/6 200 м
[Frnb As op]
+24.6 +23.7 95 +33 +33 очень
душно
1011.2 1009.4 4
С 2 4000 м мгла 8/5 240 м
[Cu med, cong As op]
+23.7 +23.4 98 +32 +32 очень
душно
1010.4 1008.6 +22.0 +29.4 20.0
СВ 1 7000 м мгла 9/5 400 м
[Cu med, cong As op]
+25.8 +24.9 95 +37 +39 очень
душно
1013.1 1011.2
СВ 3 8000 м мгла 8/5 450 м
[Cu med, cong Ac und]
+27.8 +25.2 86 +40 +46 очень
душно
1013.0 1011.2 +22.0 +28.4
СВ 2 8000 м мгла {морось} 8/5 360 м
[Cu med, cong Ac trans]
+29.5 +26.6 84 +45 +50 опасность
перегрева
1010.6 1008.7 1
ЮЗ 2 5000 м в посл. час гроза {дождь} 10/9 150 м
[Cb calv As op]
+24.0 +24.0 100 +33 +33 очень
душно
1013.0 1011.2 15
ЮЗ 2 5000 м мгла {дождь} 8/6 100 м
[Cu med, cong Ac trans]
+23.2 +22.9 98 +32 +32 очень
душно
1013.5 1011.6 15
СВ 3 4000 м мгла 9/6 240 м
[Cu med, cong Ac trans]
+25.4 +23.9 91 +35 +35 очень
душно
1012.0 1010.2 +23.0 16.3
СВ 3 7000 м мгла 8/5 450 м
[Cu med, cong Ac trans]
+26.4 +24.1 87 +37 +39 очень
душно
1013.3 1011.5
СВ 4 8000 м мгла 9/6 450 м
[Cu med, cong Ac und]
+28.8 +25.1 80 +42 +44 опасность
перегрева
1013.6 1011.8 +23.0 +29.4
СВ 6 7000 м слаб. морось {мгла} 9/8 360 м
[Cu med, cong As op]
+29.0 +26.2 85 +44 +45 опасность
перегрева
1011.6 1009.8 0.0
СВ 9
{12}
7000 м мгла {морось} 9/4 360 м
[Cu med, cong Ac trans Cs]
+27.8 +25.5 87 +41 +41 опасность
перегрева
1011.4 1009.5 +23.0 +30.4 0.0 0.0
СВ 6 6000 м мгла 6/5 360 м
[Cu med, cong Ac trans]
+27.2 +25.8 92 +40 +40 очень
душно
1012.6 1010.8
СВ 3 4000 м мгла 6/5 270 м
[Cu med, cong Ac trans]
+26.8 +26.0 95 +40 +40 очень
душно
1013.7 1011.8 +30.4
СВ 2 4000 м мгла 5/5 240 м
[Cu med, cong]
+26.4 +25.3 94 +38 +38 очень
душно
1012.0 1010.2
С 1 4000 м мгла 4/4 240 м
[Cu med, cong]
+26.2 +25.6 97 +39 +39 очень
душно
1012.5 1010.7 +25.0 +30.4 0.0
СЗ 3 8000 м мгла 5/5 400 м
[Cu med, cong]
+28.2 +26.2 89 +43 +47 опасность
перегрева
1013.1 1011.3
СЗ 3 9000 м мгла 4/4 420 м
[Cu med, cong]
+29.4 +26.0 82 +44 +55 опасность
перегрева
1012.8 1011.0 +25.0 +31.0
СЗ 5 9000 м мгла 5/4 450 м
[Cu med, cong Ac und]
+30.2 +26.3 80 +46 +50 опасность
перегрева
1012.1 1010.3
СЗ 5 8000 м мгла 6/4 400 м
[Cu med, cong Ac und]
+29.0 +25.9 83 +43 +43 опасность
перегрева
1010.7 1008.9 +25.0 +31.0
С 3 4000 м мгла 4/4 210 м
[Cu med, cong]
+27.6 +25.5 88 +40 +40 очень
душно
1012.4 1010.6
СЗ 3 4000 м мгла 5/5 210 м
[Cu med, cong]
+27.1 +25.0 88 +39 +39 очень
душно
1013.4 1011.5 +31.0
ЮЗ 2 5000 м мгла 3/3 300 м
[Cu med, cong Ac trans]
+23.8 +22.6 93 +31 +31 очень
душно
1012.0 1010.2
ЮЗ 3 6000 м мгла 4/3 300 м
[Cu med, cong Ci ing]
+22.8 +22.2 96 +31 +31 очень
душно
1011.8 1010.0 +22.2 +31.0
штиль 0 7000 м мгла 3/1 450 м
[Cu med, cong Ci fib]
+28.2 +25.1 83 +41 +53 опасность
перегрева
1012.9 1011.0
С 3 9000 м мгла 4/4 450 м
[Cu med, cong]
+29.8 +25.0 75 +43 +54 опасность
перегрева
1013.5 1011.6 +22.2 +31.0
СВ 2 10 км мгла 4/4 420 м
[Cu med, cong]
+29.2 +24.9 78 +42 +50 опасность
перегрева
1010.8 1009.0
СВ 1 9000 м мгла 4/4 400 м
[Cu med, cong]
+29.2 +25.2 79 +42 +43 опасность
перегрева
1010.5 1008.7 +22.2 +31.0
С 5 4000 м мгла 3/3 240 м
[Cu med, cong]
+27.5 +24.5 84 +39 +39 очень
душно
1011.8 1009.9
С 2 4000 м мгла ясно +27.0 +24.4 86 +38 +38 очень
душно
1012.6 1010.8 +31.0
С 2 4000 м мгла ясно +26.5 +25.1 92 +38 +38 очень
душно
1011.5 1009.7
штиль 0 5000 м мгла 8/6 210 м
[Cu med, cong As op]
+25.2 +24.3 95 +35 +35 очень
душно
1012.4 1010.5 +23.0 +31.0
СЗ 2 7000 м мгла 4/4 330 м
[Cu med, cong]
+28.8 +26.0 85 +43 +50 опасность
перегрева
1012.8 1011.0
СВ 3 8000 м мгла 4/4 450 м
[Cu med, cong]
+30.0 +25.8 78 +45 +56 опасность
перегрева
1012.4 1010.6 +23.0 +31.5
СВ 3 8000 м мгла 4/3 480 м
[Cu med, cong Ac trans]
+30.2 +25.4 76 +44 +52 опасность
перегрева
1011.2 1009.4
СВ 4 6000 м мгла 5/3 480 м
[Cu med, cong As op]
+29.2 +25.1 79 +42 +43 опасность
перегрева
1010.5 1008.7 +23.0 +31.5
С 2 4000 м мгла 4/4 240 м
[Cu med, cong]
+28.1 +26.3 90 +43 +43 опасность
перегрева
1012.8 1011.0
Местоположение метеостанции Коацакоалькос (Мексика): широта 18.13 долгота -94.41 высота над уровнем моря 22 м.
В архиве по умолчанию представлена погода в Коацакоалькосе за последнюю неделю. Архивные данные за месяц целиком и за предыдущие месяцы, начиная с января 2011 года, Вы можете получить, выбрав интересующий диапазон дат из раскрывающегося списка и нажав кнопку "Найти!".
*Определитесь, кто Вы:
Внимание! Время в таблицах - всемирное. Для получения местного времени необходимо прибавить поправку, которая равна -6 ч.
Смотрите также архив погоды в соседних городах и на ближайших метеорологических станциях:
Партнеры нашего сайта:      
Пояснения к столбцам:
  • Ветер - указаны скорость ветра в м/с - средняя за 10 мин, порывы в срок и между сроками (в фигурных скобках) и направление, откуда дует ветер: С - северный,
  • СВ - северо-восточный, В - восточный, ЮВ - юго-восточный, Ю - южный, ЮЗ - юго-западный, З - западный, СЗ - северо-западный.
  • Видимость - горизонтальная дальность видимости в метрах или километрах. При видимости от 1 до 10 км при отсутствии осадков обычно наблюдается дымка, при ухудшении видимости до 1 км и менее - туман. В сухую погоду видимость может ухудшаться дымом, пылью или мглою.
  • Явления - указаны атмосферные явления, наблюдавшиеся в срок или в последний час перед сроком; фигурными скобками обозначены явления, наблюдавшиеся между сроками (за 1-3 часа до срока); квадратными скобками обозначены град или гололедные отложения с указанием их диаметра в мм.
  • Облачность - указаны через наклонную черту общая и нижняя облачность в баллах и высота нижней границы облаков в метрах; квадратными скобками обозначены формы облаков: Ci - перистые, Cs - перисто-слоистые, Cc - перисто-кучевые, Ac - высококучевые, As - высокослоистые, Sc - слоисто-кучевые, Ns - слоисто-дождевые, Cu - кучевые, Cb - кучево-дождевые. Подробнее классификацию облаков см. в Атласе облаков (PDF).
  • T - Температура воздуха - температура, измеренная на высоте 2 м над землей.
  • Td - Температура точки росы - температура, при понижении до которой содержащийся в воздухе водяной пар достигнет насыщения.
  • f - Относительная влажность воздуха - влажноcть воздуха, измеренная на высоте 2 м над землей.
  • Te - Эффективная температура - температура, которую ощущает одетый по сезону человек в тени. Характеристика душности погоды. При расчете учитывается влияние влажности воздуха и скорости ветра на теплоощущения человека.
  • Tes - Эффективная температура на солнце - температура, которую ощущает человек, с поправкой на солнечный нагрев. Характеристика знойности погоды. Зависит от высоты солнца над горизонтом, облачности и скорости ветра. Ночью, в пасмурную погоду, а также при ветре 12 м/с и более поправка равна нулю.
  • P - Атмосферное давление - приведенное к уровню моря атмосферное давление.
  • Po - Атмосферное давление - измеренное на уровне метеостанции атмосферное давление.
  • Tmin - Минимальная температура - минимум температуры воздуха на высоте 2 м над землей.
  • Tmax - Максимальная температура - максимум температуры воздуха на высоте 2 м над землей.
  • R - Количество осадков - Количество выпавших осадков за период времени, мм. При наведении курсора мыши на число - период времени, за который выпало указанное количество осадков.
  • R24 - Количество осадков - Количество выпавших осадков за 24 часа, мм.
  • S - Снежный покров - Высота снежного покрова, см. При наведении курсора мыши на число - состояние снежного покрова и степень покрытия местности в баллах.